Home   Weather   Petah Tikva   Past weeks

Flag for Israel Past Weather in Petah Tikva, Israel — Yesterday and Last 2 Weeks

Now
55 °F

Clear.


Feels Like: 55 °F
Forecast: 55 / 64 °F
Wind: 3 mph from North

Location: Ben Gurion International Airport

Current Time: Dec 8, 2016 at 10:31:03 pm

Latest Report: Dec 8, 2016 at 9:50 pm


Visibility: 10 mi

Pressure: 30.27 "Hg

Humidity: 82%

Dew Point: 50 °F

Location of Petah TikvaLocation

Past Weather in Petah Tikva — Graph

°F

Petah Tikva Temperature Yesterday

Maximum temperature yesterday: 70 °F (at 11:20 am)
Minimum temperature yesterday: 50 °F (at 4:20 am)
Average temperature yesterday: 60 °F

High & Low Weather Summary for the Past Weeks

 TemperatureHumidityPressure
High77 °F (Nov 28, 12:50 pm)94% (Dec 2, 12:20 am)30.30 "Hg (Dec 2, 12:20 am)
Low39 °F (Nov 26, 4:20 am)4% (Nov 24, 2:20 pm)29.74 "Hg (Dec 1, 1:50 pm)
Average61 °F49%30.07 "Hg
* Reported Nov 23 9:20 pm — Dec 8 9:20 pm, Petah Tikva, Weather by CustomWeather, © 2016

Note: Actual official high and low records may vary slightly from our data, if they occured in-between our weather recording intervals... More about our weather records

Advertising

Petah Tikva Weather History for the Previous 24 Hours

Scroll right to see more
 ConditionsComfort  
Time TempWeatherWind HumidityBarometerVisibility
9:20 pm
Thu, Dec 8
55 °FClear.2 mph88%30.27 "Hg10 mi
8:50 pm57 °FClear.5 mph77%30.27 "Hg10 mi
8:20 pm57 °FClear.3 mph77%30.24 "Hg10 mi
7:50 pm57 °FPassing clouds.3 mph82%30.24 "HgN/A
7:20 pm57 °FPassing clouds.3 mph82%30.24 "HgN/A
6:50 pm57 °FPassing clouds.6 mph88%30.24 "HgN/A
6:20 pm57 °FPassing clouds.7 mph88%30.24 "HgN/A
5:50 pm57 °FPassing clouds.12 mph88%30.24 "HgN/A
5:20 pm59 °FPassing clouds.13 mph77%30.24 "HgN/A
4:50 pm59 °FPassing clouds.9 mph77%30.21 "HgN/A
4:20 pm61 °FScattered clouds.10 mph72%30.21 "HgN/A
3:50 pm61 °FScattered clouds.12 mph77%30.21 "HgN/A
3:20 pm63 °FLight rain. Scattered clouds.17 mph77%30.18 "HgN/A
2:50 pm66 °FScattered clouds.8 mph56%30.18 "HgN/A
2:20 pm68 °FPassing clouds.8 mph53%30.18 "HgN/A
1:50 pm68 °FPassing clouds.9 mph49%30.18 "HgN/A
1:20 pm68 °FPassing clouds.9 mph49%30.18 "HgN/A
12:50 pm68 °FSunny.9 mph46%30.18 "Hg10 mi
12:20 pm68 °FSunny.9 mph46%30.21 "Hg10 mi
11:50 am70 °FSunny.6 mph43%30.21 "Hg10 mi
11:20 am68 °FSunny.5 mph46%30.21 "Hg10 mi
10:50 am68 °FSunny.6 mph46%30.24 "Hg10 mi
10:20 am68 °FSunny.1 mph43%30.24 "Hg10 mi
9:50 am66 °FSunny.1 mph46%30.24 "Hg10 mi
9:20 am63 °FSunny.2 mph49%30.27 "Hg10 mi
8:50 am59 °FSunny.2 mph55%30.27 "Hg10 mi
8:20 am55 °FSunny.3 mph59%30.27 "Hg10 mi
7:50 am54 °FSunny.3 mph63%30.27 "Hg10 mi
7:20 am52 °FSunny.2 mph72%30.27 "Hg10 mi
6:50 am48 °FSunny.1 mph82%30.27 "Hg10 mi
6:20 am48 °FClear.3 mph82%30.24 "Hg10 mi
5:50 am48 °FClear.1 mph82%30.24 "Hg10 mi
5:20 am48 °FClear.3 mph87%30.24 "Hg10 mi
4:50 am48 °FClear.1 mph87%30.24 "Hg10 mi
4:20 am48 °FClear.1 mph87%30.24 "Hg10 mi
3:20 am48 °FClear.2 mph87%30.24 "Hg10 mi
2:50 am50 °FClear.2 mph82%30.21 "Hg10 mi
2:20 am52 °FClear.2 mph82%30.24 "Hg10 mi
1:50 am52 °FClear.2 mph82%30.24 "Hg10 mi
1:20 am54 °FClear.2 mph77%30.24 "Hg10 mi
12:50 am54 °FClear.2 mph77%30.21 "Hg10 mi
12:20 am54 °FClear.2 mph77%30.21 "Hg10 mi
11:50 pm
Wed, Dec 7
54 °FClear.3 mph82%30.21 "Hg10 mi
11:20 pm54 °FClear.3 mph82%30.24 "Hg10 mi
10:50 pm54 °FClear.3 mph82%30.24 "Hg10 mi
10:20 pm55 °FClear.1 mph77%30.24 "Hg10 mi
Weather by CustomWeather, © 2016

See weather overviewHow to use our weather pages